Location: Grasslands National Park East Block
(49.0708°N, 106.5295°W)
Time: 12:23:32
(UTC-06:00)

Altair - Visible Passes

Search period start: 16 October 2019 00:00
Search period end: 26 October 2019 00:00
Orbit: 1501 x 1683 km, 47.2° (Epoch: 16 October)

Date Brightness Start Highest point End Pass type
(mag) Time Alt. Az. Time Alt. Az. Time Alt. Az.
16 Oct 9.1 20:12:08 10° W 20:20:10 28° SW 20:28:16 10° S visible
17 Oct 9.1 19:46:49 10° W 19:55:06 30° SW 20:03:27 10° S visible
18 Oct 9.1 19:21:32 10° WNW 19:30:01 33° SW 19:38:37 10° SSE visible
19 Oct 9.1 18:56:16 10° WNW 19:04:57 35° SW 19:13:43 10° SSE visible
20 Oct 9.1 18:31:01 10° WNW 18:39:51 37° SW 18:48:49 10° SSE visible
20 Oct 10.1 20:41:18 10° WSW 20:42:20 10° WSW 20:43:23 10° SW visible
21 Oct 10.0 20:14:15 10° WSW 20:17:21 12° WSW 20:20:29 10° SW visible
22 Oct 10.0 19:48:09 10° W 19:52:22 13° WSW 19:56:36 10° SSW visible
23 Oct 10.0 19:22:21 10° W 19:27:21 15° SW 19:32:25 10° SSW visible
24 Oct 10.0 18:56:42 10° W 19:02:21 17° SW 19:08:03 10° SSW visible
25 Oct 10.0 18:31:10 10° W 18:37:20 19° SW 18:43:35 10° SSW visible
